CW3508 Weather Reports


Display with metric or nautical units.
time (UTC)temp
F
wind
direction
speed
MPH
gust
MPH
rain 1hr
in
rain 24hr
in
rain mn
in
humidity
%
barometer
mb
20260831200526 94 218 0.0 0.0 0.00 0.00 0.00 60 1014.8
20260831200016 95 327 0.0 1.0 0.00 0.00 0.00 58 1015.4
20260831185516 95 327 0.0 1.0 0.00 0.00 0.00 59 1015.5
20260831185031 95 220 0.0 2.0 0.00 0.00 0.00 59 1015.5
20260831184548 95 257 0.0 1.0 0.00 0.00 0.00 60 1015.5
20260831184032 95 281 0.0 0.0 0.00 0.00 0.00 60 1015.8
20260831183534 95 191 0.0 1.0 0.00 0.00 0.00 59 1015.8
20260831183021 95 284 0.0 1.0 0.00 0.00 0.00 61 1015.8
20260831182532 95 284 0.0 1.0 0.00 0.00 0.00 62 1016.1
20260831182024 95 284 0.0 1.0 0.00 0.00 0.00 61 1016.1
20260831181519 95 281 0.0 0.0 0.00 0.00 0.00 60 1016.1
20260831181020 95 260 0.0 0.0 0.00 0.00 0.00 61 1016.1
20260831180527 95 175 0.0 0.0 0.00 0.00 0.00 61 1016.1
20260831180033 95 175 0.0 1.0 0.00 0.00 0.00 60 1016.1
20260831175529 95 216 0.0 1.0 0.00 0.00 0.00 60 1016.4
20260831175029 95 232 0.0 0.0 0.00 0.00 0.00 61 1016.4
20260831174529 95 226 0.0 0.0 0.00 0.00 0.00 63 1016.4
20260831174026 95 177 0.0 0.0 0.00 0.00 0.00 61 1016.6
20260831173523 95 315 0.0 0.0 0.00 0.00 0.00 62 1016.6
20260831173030 95 315 0.0 1.0 0.00 0.00 0.00 62 1016.6
20260831172530 95 315 0.0 1.0 0.00 0.00 0.00 63 1016.6
20260831172023 94 167 0.0 1.0 0.00 0.00 0.00 63 1016.6
20260831171528 94 140 0.0 1.0 0.00 0.00 0.00 61 1016.6
20260831171033 94 165 0.0 1.0 0.00 0.00 0.00 62 1016.6
20260831170518 94 315 0.0 1.0 0.00 0.00 0.00 62 1016.6
20260831170051 94 229 0.0 1.0 0.00 0.00 0.00 66 1016.6
20260831165531 93 267 0.0 1.0 0.00 0.00 0.00 65 1017.0
20260831165044 93 189 0.0 0.0 0.00 0.00 0.00 65 1017.0
20260831164529 92 296 0.0 1.0 0.00 0.00 0.00 70 1017.0
20260831164031 91 302 0.0 1.0 0.00 0.00 0.00 69 1017.1
20260831163546 90 302 0.0 1.0 0.00 0.00 0.00 72 1017.1
20260831163028 89 302 0.0 1.0 0.00 0.00 0.00 75 1017.1
20260831162525 89 178 0.0 0.0 0.00 0.00 0.00 72 1017.1
20260831162033 88 178 0.0 0.0 0.00 0.00 0.00 73 1017.1
20260831161529 88 178 0.0 0.0 0.00 0.00 0.00 72 1017.1
20260831161033 88 178 0.0 1.0 0.00 0.00 0.00 76 1017.4
20260831160535 88 178 0.0 1.0 0.00 0.00 0.00 76 1017.4
20260831160018 87 178 0.0 0.0 0.00 0.00 0.00 76 1017.4
20260831155534 87 178 0.0 0.0 0.00 0.00 0.00 77 1017.5
20260831155034 86 178 0.0 0.0 0.00 0.00 0.00 77 1017.5
20260831154548 86 178 0.0 0.0 0.00 0.00 0.00 76 1017.5
20260831154033 86 178 0.0 0.0 0.00 0.00 0.00 76 1017.3
20260831153537 86 154 0.0 0.0 0.00 0.00 0.00 77 1017.3
20260831153016 86 193 0.0 0.0 0.00 0.00 0.00 78 1017.3
20260831152025 84 167 0.0 0.0 0.00 0.00 0.00 80 1017.3
20260831151542 84 171 0.0 0.0 0.00 0.00 0.00 80 1017.3
20260831150548 83 188 0.0 0.0 0.00 0.00 0.00 82 1017.4
20260831150034 83 188 0.0 0.0 0.00 0.00 0.00 82 1017.4
20260831145534 83 188 0.0 1.0 0.00 0.00 0.00 82 1017.3
20260831145021 83 187 0.0 1.0 0.00 0.00 0.00 82 1017.3
20260831144534 82 176 0.0 0.0 0.00 0.00 0.00 83 1017.3
20260831144033 82 178 0.0 0.0 0.00 0.00 0.00 84 1017.4
20260831143029 80 157 0.0 0.0 0.00 0.00 0.00 86 1017.4
20260831142529 80 157 0.0 0.0 0.00 0.00 0.00 87 1017.3
20260831142043 80 158 0.0 0.0 0.00 0.00 0.00 89 1017.3
20260831141530 79 232 0.0 0.0 0.00 0.00 0.00 90 1017.3
20260831141039 79 232 0.0 0.0 0.00 0.00 0.00 91 1017.4
20260831140540 78 232 0.0 0.0 0.00 0.00 0.00 91 1017.4
20260831140053 78 232 0.0 0.0 0.00 0.00 0.00 92 1017.4
20260831135548 78 232 0.0 0.0 0.00 0.00 0.00 93 1017.5
20260831134950 77 232 0.0 0.0 0.00 0.00 0.00 94 1015.5
20260831101519 74 232 0.0 0.0 0.00 0.00 0.00 93 1015.5
20260831101024 74 232 0.0 0.0 0.00 0.00 0.00 93 1015.5
20260831100529 74 232 0.0 0.0 0.00 0.00 0.00 93 1015.5
20260831100026 74 232 0.0 0.0 0.00 0.00 0.00 93 1015.5
20260831095529 75 232 0.0 0.0 0.00 0.00 0.00 92 1015.5
20260831095033 75 232 0.0 0.0 0.00 0.00 0.00 92 1015.5
20260831094520 75 232 0.0 0.0 0.00 0.00 0.00 92 1015.5
20260831094054 75 232 0.0 0.0 0.00 0.00 0.00 92 1015.5
20260831093534 75 232 0.0 0.0 0.00 0.00 0.00 92 1015.5
20260831093019 75 232 0.0 0.0 0.00 0.00 0.00 92 1015.5
20260831092535 75 232 0.0 0.0 0.00 0.00 0.00 92 1015.5
20260831092032 75 232 0.0 0.0 0.00 0.00 0.00 92 1015.5
20260831091532 75 232 0.0 0.0 0.00 0.00 0.00 92 1015.5
20260831091022 75 232 0.0 0.0 0.00 0.00 0.00 92 1015.4
20260831090602 75 232 0.0 0.0 0.00 0.00 0.00 92 1015.4
20260831090041 75 232 0.0 0.0 0.00 0.00 0.00 92 1015.4
20260831085558 75 232 0.0 0.0 0.00 0.00 0.00 92 1015.1
20260831085041 75 232 0.0 0.0 0.00 0.00 0.00 91 1015.1
20260831084547 75 232 0.0 0.0 0.00 0.00 0.00 91 1015.1
20260831084024 75 232 0.0 0.0 0.00 0.00 0.00 91 1015.0
20260831083536 75 232 0.0 0.0 0.00 0.00 0.00 91 1015.0
20260831083043 75 232 0.0 0.0 0.00 0.00 0.00 91 1015.0
20260831082554 76 232 0.0 0.0 0.00 0.00 0.00 91 1015.0
20260831082020 76 232 0.0 0.0 0.00 0.00 0.00 91 1015.0
20260831081530 76 232 0.0 0.0 0.00 0.00 0.00 91 1015.0
20260831081057 76 232 0.0 0.0 0.00 0.00 0.00 91 1015.0
20260831080534 76 232 0.0 0.0 0.00 0.00 0.00 90 1015.0
20260831080021 76 232 0.0 0.0 0.00 0.00 0.00 90 1015.0
20260831075526 76 232 0.0 0.0 0.00 0.00 0.00 90 1014.9
20260831075027 76 232 0.0 0.0 0.00 0.00 0.00 90 1014.9
20260831074541 76 232 0.0 0.0 0.00 0.00 0.00 90 1014.9
20260831074016 76 232 0.0 0.0 0.00 0.00 0.00 90 1014.9
20260831073547 76 232 0.0 0.0 0.00 0.00 0.00 90 1014.9
20260831073036 77 232 0.0 0.0 0.00 0.00 0.00 90 1014.9
20260831072548 77 232 0.0 0.0 0.00 0.00 0.00 89 1014.9
20260831072029 77 232 0.0 0.0 0.00 0.00 0.00 89 1014.9
20260831071530 77 232 0.0 0.0 0.00 0.00 0.00 89 1014.9
20260831071041 77 232 0.0 0.0 0.00 0.00 0.00 89 1014.8
20260831070551 77 232 0.0 0.0 0.00 0.00 0.00 89 1014.8
20260831070038 77 232 0.0 0.0 0.00 0.00 0.00 89 1014.8
20260831065521 77 232 0.0 0.0 0.00 0.00 0.00 89 1014.9
20260831065026 77 232 0.0 0.0 0.00 0.00 0.00 89 1014.9
20260831064536 77 232 0.0 0.0 0.00 0.00 0.00 89 1014.9
20260831064017 77 232 0.0 0.0 0.00 0.00 0.00 89 1015.0
20260831063541 77 232 0.0 0.0 0.00 0.00 0.00 89 1015.0
20260831063015 77 232 0.0 0.0 0.00 0.00 0.00 89 1015.0
20260831062532 77 232 0.0 0.0 0.00 0.00 0.00 89 1015.0
20260831062024 77 232 0.0 0.0 0.00 0.00 0.00 89 1015.0
20260831061534 77 232 0.0 0.0 0.00 0.00 0.00 89 1015.0
20260831061032 77 232 0.0 0.0 0.00 0.00 0.00 89 1015.0
20260831060521 77 232 0.0 0.0 0.00 0.00 0.00 89 1015.0
20260831060044 77 232 0.0 0.0 0.00 0.00 0.00 88 1015.0
20260831055518 77 232 0.0 0.0 0.00 0.00 0.00 88 1015.0
20260831055036 78 232 0.0 0.0 0.00 0.00 0.00 88 1015.0
20260831054530 78 232 0.0 0.0 0.00 0.00 0.00 88 1015.0
20260831054032 78 232 0.0 0.0 0.00 0.00 0.00 88 1015.0
20260831053532 78 232 0.0 0.0 0.00 0.00 0.00 88 1015.0
20260831053045 78 232 0.0 0.0 0.00 0.00 0.00 88 1015.0
20260831052603 78 232 0.0 0.0 0.00 0.00 0.00 88 1015.0
20260831052042 78 232 0.0 0.0 0.00 0.00 0.00 88 1015.0
20260831051539 78 232 0.0 0.0 0.00 0.00 0.00 88 1015.0
20260831051025 78 232 0.0 0.0 0.00 0.00 0.00 88 1015.2
20260831050537 78 232 0.0 0.0 0.00 0.00 0.00 88 1015.2
20260831050033 78 232 0.0 0.0 0.00 0.00 0.00 88 1015.2
20260831045535 78 232 0.0 0.0 0.00 0.00 0.00 87 1015.3
20260831045037 78 232 0.0 0.0 0.00 0.00 0.00 87 1015.3
20260831044519 78 232 0.0 0.0 0.00 0.00 0.00 87 1015.3
20260831044020 78 232 0.0 0.0 0.00 0.00 0.00 87 1015.1
20260831043523 78 232 0.0 0.0 0.00 0.00 0.00 87 1015.1
20260831043049 78 232 0.0 0.0 0.00 0.00 0.00 87 1015.1
20260831042530 78 232 0.0 0.0 0.00 0.00 0.00 87 1015.1
20260831042018 79 232 0.0 0.0 0.00 0.00 0.00 86 1015.1
20260831041518 79 232 0.0 0.0 0.00 0.00 0.00 86 1015.1
20260831041027 79 232 0.0 0.0 0.00 0.00 0.00 86 1015.0
20260831040543 79 232 0.0 0.0 0.00 0.00 0.00 85 1015.0
20260831040036 79 232 0.0 0.0 0.00 0.00 0.00 85 1015.0
20260831035542 79 232 0.0 0.0 0.00 0.00 0.00 85 1015.0
20260831035030 79 232 0.0 0.0 0.00 0.00 0.00 85 1015.0
20260831034520 79 232 0.0 0.0 0.00 0.00 0.00 85 1015.0
20260831034028 80 232 0.0 0.0 0.00 0.00 0.00 85 1015.0
20260831033536 80 232 0.0 0.0 0.00 0.00 0.00 84 1015.0
20260831033021 80 232 0.0 0.0 0.00 0.00 0.00 84 1015.0
20260831032526 80 232 0.0 0.0 0.00 0.00 0.00 84 1015.0
20260831032033 80 232 0.0 0.0 0.00 0.00 0.00 84 1015.0
20260831031055 80 232 0.0 0.0 0.00 0.00 0.00 84 1015.0
20260831030536 80 232 0.0 0.0 0.00 0.00 0.00 83 1015.0
20260831030046 80 232 0.0 0.0 0.00 0.00 0.00 84 1015.0
20260831025534 80 232 0.0 0.0 0.00 0.00 0.00 83 1014.9
20260831025039 80 232 0.0 0.0 0.00 0.00 0.00 83 1014.9
20260831024538 81 232 0.0 0.0 0.00 0.00 0.00 83 1014.9
20260831024021 81 232 0.0 0.0 0.00 0.00 0.00 83 1015.0
20260831023557 81 232 0.0 0.0 0.00 0.00 0.00 83 1015.0
20260831023050 81 232 0.0 0.0 0.00 0.00 0.00 82 1015.0
20260831022529 81 232 0.0 0.0 0.00 0.00 0.00 82 1015.0
20260831022022 81 232 0.0 0.0 0.00 0.00 0.00 82 1015.0
20260831021525 81 232 0.0 0.0 0.00 0.00 0.00 82 1015.0
20260831021028 82 232 0.0 0.0 0.00 0.00 0.00 81 1015.0
20260831020544 82 232 0.0 0.0 0.00 0.00 0.00 81 1015.0
20260831015541 82 232 0.0 0.0 0.00 0.00 0.00 80 1014.8
20260831015041 82 232 0.0 0.0 0.00 0.00 0.00 79 1014.8
20260831014541 82 232 0.0 0.0 0.00 0.00 0.00 79 1014.8
20260831014041 82 232 0.0 0.0 0.00 0.00 0.00 79 1014.7
20260831013601 82 232 0.0 0.0 0.00 0.00 0.00 79 1014.7
20260831013028 83 232 0.0 0.0 0.00 0.00 0.00 78 1014.7
20260831012523 83 232 0.0 0.0 0.00 0.00 0.00 78 1014.5
20260831012020 83 232 0.0 0.0 0.00 0.00 0.00 78 1014.5
20260831011535 83 232 0.0 0.0 0.00 0.00 0.00 77 1014.5
20260831011037 83 232 0.0 0.0 0.00 0.00 0.00 77 1014.3
20260831010535 84 232 0.0 0.0 0.00 0.00 0.00 77 1014.3
20260831010036 84 232 0.0 0.0 0.00 0.00 0.00 78 1014.3
20260831005524 84 232 0.0 0.0 0.00 0.00 0.00 77 1014.3
20260831005058 84 232 0.0 0.0 0.00 0.00 0.00 77 1014.3
20260831004517 84 232 0.0 0.0 0.00 0.00 0.00 76 1014.3
20260831004034 84 232 0.0 0.0 0.00 0.00 0.00 75 1014.1
20260831003532 85 232 0.0 0.0 0.00 0.00 0.00 75 1014.1
20260831003033 85 232 0.0 0.0 0.00 0.00 0.00 75 1014.1
20260831002032 85 232 0.0 0.0 0.00 0.00 0.00 74 1014.1
20260831001532 85 232 0.0 0.0 0.00 0.00 0.00 74 1014.1
20260831001025 85 232 0.0 0.0 0.00 0.00 0.00 73 1014.0
20260831000547 86 232 0.0 0.0 0.00 0.00 0.00 74 1014.0
20260831000028 86 232 0.0 0.0 0.00 0.00 0.00 73 1014.0
20260830235529 86 232 0.0 0.0 0.00 0.00 0.00 73 1014.0
20260830235044 86 232 0.0 0.0 0.00 0.00 0.00 72 1014.0
20260830234524 86 232 0.0 0.0 0.00 0.00 0.00 72 1014.0
20260830234030 86 232 0.0 0.0 0.00 0.00 0.00 72 1014.0
20260830233538 86 232 0.0 0.0 0.00 0.00 0.00 72 1014.0
20260830233030 87 232 0.0 0.0 0.00 0.00 0.00 72 1014.0
20260830232532 87 232 0.0 0.0 0.00 0.00 0.00 72 1014.0
20260830232028 87 232 0.0 0.0 0.00 0.00 0.00 72 1014.0
20260830231541 87 232 0.0 0.0 0.00 0.00 0.00 71 1014.0
20260830231039 87 232 0.0 0.0 0.00 0.00 0.00 71 1013.9
20260830230544 87 232 0.0 0.0 0.00 0.00 0.00 71 1013.9
20260830230027 87 232 0.0 0.0 0.00 0.00 0.00 71 1013.9
20260830225537 88 232 0.0 0.0 0.00 0.00 0.00 71 1013.8
20260830225019 88 232 0.0 0.0 0.00 0.00 0.00 70 1013.8
20260830224533 88 232 0.0 0.0 0.00 0.00 0.00 70 1013.8
20260830224049 88 232 0.0 0.0 0.00 0.00 0.00 70 1013.8
20260830223536 88 232 0.0 0.0 0.00 0.00 0.00 70 1013.8
20260830223019 88 232 0.0 1.0 0.00 0.00 0.00 69 1013.8
20260830222041 89 230 0.0 0.0 0.00 0.00 0.00 68 1013.9
20260830221526 89 230 0.0 0.0 0.00 0.00 0.00 68 1013.9
20260830221033 89 230 0.0 0.0 0.00 0.00 0.00 68 1013.9
20260830220524 89 230 0.0 1.0 0.00 0.00 0.00 68 1013.9
20260830220107 89 230 0.0 1.0 0.00 0.00 0.00 68 1013.9
20260830215544 89 202 0.0 0.0 0.00 0.00 0.00 65 1013.9
20260830215033 89 211 0.0 1.0 0.00 0.00 0.00 66 1013.9
20260830214521 89 211 0.0 1.0 0.00 0.00 0.00 66 1013.9
20260830214026 89 209 0.0 0.0 0.00 0.00 0.00 66 1014.0
20260830213027 90 209 0.0 1.0 0.00 0.00 0.00 66 1014.0
20260830212523 90 185 0.0 0.0 0.00 0.00 0.00 66 1014.0
20260830212019 90 184 0.0 0.0 0.00 0.00 0.00 67 1014.0
20260830211538 90 184 0.0 1.0 0.00 0.00 0.00 68 1014.0
20260830211043 90 184 0.0 1.0 0.00 0.00 0.00 68 1014.0
20260830210543 90 184 0.0 1.0 0.00 0.00 0.00 68 1014.0
20260830210030 90 184 0.0 1.0 0.00 0.00 0.00 65 1014.0
20260830205533 90 231 0.0 0.0 0.00 0.00 0.00 65 1014.2
20260830205036 90 231 0.0 0.0 0.00 0.00 0.00 65 1014.2
20260830204537 91 226 0.0 0.0 0.00 0.00 0.00 64 1014.2
20260830204026 91 261 0.0 0.0 0.00 0.00 0.00 65 1014.5
20260830203535 91 261 0.0 0.0 0.00 0.00 0.00 64 1014.5
20260830203021 91 216 0.0 1.0 0.00 0.00 0.00 67 1014.5
20260830202520 91 214 0.0 1.0 0.00 0.00 0.00 64 1014.5
20260830202027 91 282 0.0 4.0 0.00 0.00 0.00 65 1014.5
20260830201532 91 269 0.0 4.0 0.00 0.00 0.00 65 1014.5